Location: Burbank
(38.7788°N, 114.0429°W)
Time: 19:47:46
(UTC+00:00)

Vanguard 2 Rocket - Pass Details

Date: 19 May 2026
Orbit: 553 x 3286 km, 32.9° (Epoch: 6 June)

Event Time Altitude Azimuth Distance (km) Brightness Sun altitude
Rises 19:41:55 0° 265° (W) 5,280 10.9 71.0°
Reaches altitude 10° 19:44:51 10° 263° (W) 4,583 10.7 70.9°
Maximum altitude 19:58:51 71° 183° (S) 2,998 12.7 70.3°
Drops below altitude 10° 20:18:46 10° 105° (ESE) 6,225 11.2 68.7°
Sets 20:23:33 0° 104° (ESE) 7,182 11.4 68.2°
